Hourly Data Report for October 20, 2013

All times are specified in Local Standard Time (LST). Add 1 hour to adjust for Daylight Saving Time where and when it is observed.

KUGAARUK CLIMATE
NUNAVUT

68°32'15.060" N
89°47'47.020" W
15.80 m
2303094
71407
NBB

Download Data

Hourly Data (October 2013)
Hourly Data Report for October 20, 2013
Temp Definition
°C
Dew Point Temp Definition
°C
Rel Hum Definition
%
Wind Dir Definition
10's deg

Wind Spd Definition
km/h
Visibility Definition
km
Stn Press Definition
kPa
Hmdx Definition


Wind Chill Definition


Weather Definition


TIME
00:00 -3.7 -4.2 96 26 9   101.49   -7 LegendNANA
01:00 -3.8 -4.3 96 26 9   101.54   -8 LegendNANA
02:00 -3.7 -4.2 96 25 7   101.57   -7 LegendNANA
03:00 -3.7 -4.2 96 25 7   101.60   -7 LegendNANA
04:00 -3.8 -4.4 96 25 9   101.64   -8 LegendNANA
05:00 -3.7 -4.2 96 26 7   101.68   -7 LegendNANA
06:00 -3.7 -4.2 96 26 9   101.73   -7 LegendNANA
07:00 -3.7 -4.3 96 25 7   101.75   -7 LegendNANA
08:00 -3.5 -4.1 96 26 4   101.78   -5 LegendNANA
09:00 -3.4 -4.2 94 25 4   101.81   -5 LegendNANA
10:00 -3.2 -4.0 94 25 6   101.84   -6 LegendNANA
11:00 -3.2 -4.2 93 25 6   101.86   -6 LegendNANA
12:00 -3.2 -4.2 93 26 6   101.91   -6 LegendNANA
13:00 -3.1 -4.1 93 28 4   101.93   -5 LegendNANA
14:00 -3.3 -4.1 94 26 4   101.95   -5 LegendNANA
15:00 -3.6 -4.3 95 25 4   101.97   -5 LegendNANA
16:00 -3.8 -4.4 96 27 2   101.99   -5 LegendNANA
17:00 -3.7 -4.3 96   0   102.01     LegendNANA
18:00 -4.0 -4.6 96   0   102.04     LegendNANA
19:00 -3.7 -4.1 97 23 2   102.04   -5 LegendNANA
20:00 -3.9 -4.4 96 14 2   102.03   -5 LegendNANA
21:00 -4.2 -4.7 96 9 2   102.03   -5 LegendNANA
22:00 -4.1 -4.6 96 4 2   102.04   -5 LegendNANA
23:00 -4.2 -4.8 96 14 2   102.05   -5 LegendNANA

Notes on Data Quality.

Legend

  • E = Estimated
  • M = Missing
  • NA = Not Available
  • ‡ = Partner data that is not subject to review by the National Climate Archives
Date modified: